[[{"header":{"parameterUnit":"m.s-1","parameterCategory":1,"la1":30.2991,"la2":30.254,"lo1":-89.0895,"lo2":-89.0444,"dy":0.0017,"dx":0.0017,"nx":28,"ny":28,"refTime":"2025-07-18T03:00:00:Z","depth":0,"parameterNumber":2,"parameterNumberName":"U-component_of_WINDS"},"data":[0,0,0,0,0,0,0,0,0,0,0,0,0,0,0,0,0,0,0,0,0,0,0,0,0,0,0,0,0,0,0,0,0,0,0,0,0,0,0,0,0,0,0,0,0,0,0,0,0,0,0,0,0,0,0,0,0,0,0.7094,0.7093,0,0.6963,0.6961,0.696,0.6792,0.6789,0.6787,0.6784,0.6652,0.6651,0.665,0,0,0,0,0,0,0,0,0,0,0,0,0,0.7202,0.7201,0.7095,0.7093,0.7091,0.6963,0.6961,0.696,0.6793,0.6789,0.6786,0.6783,0.6652,0.6651,0.665,0,0,0,0,0,0,0,0,0,0,0,0,0,0.7122,0.72,0.7095,0.6992,0.6982,0.6964,0.6961,0.6959,0.6793,0.6789,0.6785,0.6781,0.6653,0.6651,0.665,0.6722,0,0,0.6645,0.6645,0,0,0,0,0,0,0,0,0.7126,0.7118,0.7009,0.6999,0.6988,0.689,0.6951,0.688,0.6794,0.6865,0.6784,0.6779,0.6735,0.6726,0.671,0.6716,0.671,0.6645,0.6644,0.6644,0.6643,0,0,0,0,0,0,0,0.7132,0.7123,0.7042,0.7008,0.6995,0.6953,0.6937,0.6936,0.6824,0.6859,0.6846,0.6833,0.6728,0.6712,0.6706,0.6708,0.6645,0.6644,0.6643,0.6643,0.6764,0.6768,0,0,0,0,0,0,0.7153,0.7128,0.7047,0.7039,0.7048,0.6955,0.6937,0.6925,0.6824,0.6804,0.6836,0.6825,0.6717,0.6708,0.6701,0.6777,0.6644,0.6642,0.6642,0.676,0.6765,0.6769,0,0,0,0,0,0,0.7156,0.7147,0.7052,0.708,0.7065,0.6957,0.6946,0.6925,0.6909,0.6807,0.6786,0.6841,0.6713,0.6703,0.6717,0.677,0.6642,0.664,0.6755,0.6762,0.6767,0.6931,0,0,0,0,0,0,0.716,0.7149,0.7176,0.7082,0.7064,0.7071,0.6949,0.6925,0.6907,0.6891,0.6806,0.6788,0.6709,0.6721,0.6716,0.6766,0.6639,0.675,0.6758,0.6765,0.6921,0.6942,0.6961,0,0,0,0,0,0.7164,0.7228,0.7178,0.7169,0.7094,0.7074,0.7064,0.6972,0.6912,0.6937,0.6871,0.679,0.6765,0.6723,0.6717,0.6767,0.6746,0.6756,0.6765,0.6912,0.6938,0.696,0,0,0,0,0,0,0.7332,0.7214,0.7157,0.7192,0.7145,0.7046,0.7075,0.7003,0.6972,0.6959,0.6846,0.6829,0.6857,0.6813,0.6769,0.683,0.6744,0.6752,0.6858,0.6882,0.6902,0.6911,0.6638,0,0,0,0,0,0.7373,0.7366,0.7264,0.7305,0.7284,0.7184,0.7172,0.7105,0.7051,0.703,0.6965,0.6917,0.6897,0.6887,0.6864,0.6914,0.6892,0.6945,0.6965,0.6982,0.699,0.7011,0.7033,0.68,0.68,0.68,0,0,0.7458,0.7393,0.7396,0.7337,0.7292,0.7287,0.7168,0.7169,0.7164,0.7031,0.7039,0.6991,0.6929,0.6961,0.6971,0.6925,0.705,0.6994,0.7008,0.7007,0.7023,0.7045,0.7065,0.6806,0.6805,0.6804,0,0,0.761,0.7561,0.7588,0.7545,0.7478,0.7411,0.7418,0.733,0.7292,0.7299,0.7198,0.7191,0.7161,0.712,0.7096,0.7231,0.7155,0.7227,0.7332,0.7353,0.7372,0.7387,0.7434,0.7452,0.7236,0.7236,0.7237,0,0.7724,0.7713,0.7612,0.7618,0.7595,0.7473,0.7499,0.7463,0.7393,0.7379,0.7329,0.7286,0.7236,0.7256,0.7289,0.7274,0.7277,0.7236,0.7377,0.7392,0.7405,0.7448,0.7466,0.7245,0.7244,0.7243,0.7242,0,0.7856,0.7849,0.788,0.7813,0.7793,0.781,0.7712,0.7704,0.7639,0.7578,0.7585,0.7521,0.7482,0.7481,0.7418,0.7492,0.7465,0.7398,0.7308,0.7438,0.7476,0.7492,0.7258,0.7255,0.7252,0.725,0,0,0.811,0.7986,0.7999,0.7966,0.7883,0.7876,0.7887,0.7847,0.7842,0.7798,0.7803,0.778,0.7716,0.7688,0.7619,0.7639,0.7748,0.7568,0.7565,0.7603,0.7823,0.7873,0.7894,0.7697,0.77,0.7702,0.7827,0,0.8245,0.8256,0.8165,0.82,0.8192,0.8075,0.8085,0.8035,0.7978,0.7963,0.7899,0.7884,0.7802,0.7784,0.7798,0.7732,0.779,0.7722,0.7701,0.7701,0.7719,0.7914,0.7968,0.8089,0.7842,0.7845,0.7846,0,0.8404,0.8366,0.8401,0.8314,0.8307,0.8317,0.8272,0.826,0.82,0.8157,0.8126,0.8046,0.805,0.7966,0.797,0.7925,0.7911,0.7878,0.788,0.7873,0.7781,0.7912,0.8126,0.8144,0.787,0.7868,0.7866,0,0.8584,0.8542,0.8556,0.8533,0.8432,0.8441,0.84,0.8336,0.8318,0.8279,0.8266,0.8229,0.8209,0.8182,0.8094,0.8041,0.8108,0.8017,0.8072,0.8074,0.809,0.809,0.8304,0.8084,0.8084,0.8084,0.8083,0,0.8743,0.8768,0.8635,0.8645,0.8669,0.8565,0.8592,0.8539,0.8483,0.848,0.8377,0.8376,0.8261,0.8247,0.8179,0.8191,0.8183,0.8148,0.813,0.8157,0.8161,0.8145,0.8134,0.8088,0.8087,0.8086,0.8086,0,0.8948,0.886,0.8868,0.8771,0.8748,0.877,0.8687,0.8691,0.8628,0.8624,0.8618,0.8518,0.8496,0.8406,0.8363,0.8316,0.8351,0.8316,0.8371,0.8359,0.8418,0.8413,0.8628,0.865,0.8419,0.8421,0.8423,0,0.9054,0.9071,0.8976,0.8966,0.8928,0.8914,0.8893,0.8792,0.8775,0.8708,0.872,0.8689,0.8659,0.863,0.8553,0.852,0.8481,0.8559,0.8476,0.8502,0.8481,0.848,0.8481,0.8577,0.858,0.8582,0.8584,0,0.9253,0.9208,0.9183,0.9143,0.9121,0.9085,0.9042,0.904,0.8926,0.8913,0.8888,0.8865,0.882,0.8791,0.8744,0.8701,0.8624,0.8611,0.8622,0.8649,0.868,0.8662,0.8418,0.8606,0.8604,0.8603,0.8601,0.8601,0.941,0.9418,0.9352,0.9327,0.9284,0.9247,0.9245,0.9181,0.9158,0.9113,0.9054,0.9038,0.8976,0.8905,0.8868,0.8853,0.881,0.8826,0.883,0.8835,0.8848,0.8683,0.8844,0.8844,0.8843,0.8842,0.8842,0,0.9601,0.9552,0.9531,0.9474,0.9454,0.9382,0.9331,0.932,0.9306,0.9255,0.9227,0.9198,0.9169,0.9091,0.9053,0.9057,0.902,0.905,0.9048,0.9039,0.8889,0.8883,0.908,0.908,0.908,0.908,0.908,0.908,0.9698,0.9708,0.9655,0.9643,0.9594,0.9575,0.9552,0.9517,0.9475,0.9448,0.9423,0.9371,0.9309,0.9266,0.9236,0.9213,0.9204,0.9246,0.9212,0.9073,0.905,0.9028,0.9022,0.9245,0.9245,0.9363,0.9364,0.9365]},{"header":{"parameterUnit":"m.s-1","parameterCategory":1,"la1":30.2991,"la2":30.254,"lo1":-89.0895,"lo2":-89.0444,"dy":0.0017,"dx":0.0017,"nx":28,"ny":28,"refTime":"2025-07-18T03:00:00:Z","depth":0,"parameterNumber":3,"parameterNumberName":"V-component_of_WINDS"},"data":[0,0,0,0,0,0,0,0,0,0,0,0,0,0,0,0,0,0,0,0,0,0,0,0,0,0,0,0,0,0,0,0,0,0,0,0,0,0,0,0,0,0,0,0,0,0,0,0,0,0,0,0,0,0,0,0,0,0,6.407,6.4074,0,6.4412,6.4416,6.442,6.4469,6.4466,6.4463,6.446,6.4809,6.4821,6.4833,0,0,0,0,0,0,0,0,0,0,0,0,0,6.3457,6.3468,6.407,6.4074,6.4078,6.4411,6.4416,6.4421,6.447,6.4466,6.4462,6.4458,6.4805,6.4819,6.4834,0,0,0,0,0,0,0,0,0,0,0,0,0,6.3753,6.3471,6.4069,6.4143,6.4153,6.441,6.4416,6.4422,6.447,6.4466,6.4461,6.4457,6.48,6.4818,6.4836,6.5043,0,0,6.4892,6.49,0,0,0,0,0,0,0,0,6.3736,6.3775,6.4128,6.4138,6.415,6.4393,6.4328,6.463,6.4472,6.435,6.446,6.4454,6.4674,6.4702,6.4777,6.5059,6.5074,6.4893,6.4904,6.4912,6.4918,0,0,0,0,0,0,0,6.3716,6.3761,6.4205,6.4133,6.4146,6.4158,6.4195,6.4385,6.4534,6.436,6.4364,6.4404,6.4679,6.4759,6.4785,6.5079,6.4893,6.4909,6.492,6.4928,6.5546,6.5551,0,0,0,0,0,0,6.3682,6.3744,6.4194,6.4215,6.3927,6.4173,6.4214,6.432,6.4532,6.456,6.4408,6.4405,6.473,6.4764,6.4798,6.5053,6.4912,6.4929,6.494,6.5541,6.5547,6.5553,0,0,0,0,0,0,6.3668,6.3722,6.418,6.3981,6.404,6.4189,6.4307,6.4329,6.4409,6.4568,6.4595,6.4462,6.4728,6.4772,6.4981,6.5066,6.4938,6.4954,6.5534,6.5543,6.555,6.5565,0,0,0,0,0,0,6.3651,6.3716,6.3797,6.3982,6.4051,6.4359,6.4312,6.4339,6.444,6.444,6.4627,6.4653,6.4728,6.4954,6.4999,6.5089,6.4969,6.5528,6.5538,6.5548,6.5557,6.5572,6.5585,0,0,0,0,0,6.3629,6.3788,6.3801,6.3855,6.4155,6.4364,6.4403,6.4486,6.4447,6.4529,6.4631,6.4647,6.5049,6.4975,6.5027,6.5122,6.5523,6.5535,6.5547,6.5551,6.557,6.5585,0,0,0,0,0,0,6.361,6.3814,6.3831,6.4055,6.4191,6.4371,6.4478,6.4503,6.4653,6.4646,6.4742,6.4784,6.4988,6.5077,6.499,6.5333,6.5282,6.5306,6.5268,6.5286,6.53,6.5274,6.4984,0,0,0,0,0,6.3631,6.3784,6.3954,6.4136,6.4203,6.4328,6.4423,6.4474,6.462,6.4678,6.4795,6.4935,6.5093,6.5195,6.5349,6.5571,6.5611,6.5662,6.5676,6.5686,6.5705,6.5827,6.5851,6.5594,6.5594,6.5593,0,0,6.3678,6.3809,6.3899,6.4135,6.4247,6.4402,6.4377,6.4543,6.4658,6.4703,6.4907,6.4998,6.516,6.5376,6.5477,6.5456,6.5785,6.5702,6.5709,6.5723,6.5842,6.5866,6.5888,6.5602,6.56,6.5599,0,0,6.3842,6.3957,6.412,6.4232,6.4402,6.4484,6.4522,6.4699,6.4761,6.4968,6.5004,6.5142,6.5412,6.5526,6.5619,6.5824,6.5843,6.5871,6.5944,6.6062,6.6082,6.61,6.6172,6.6196,6.589,6.589,6.589,0,6.3879,6.4115,6.42,6.4365,6.4466,6.4513,6.4678,6.4783,6.4994,6.5062,6.5036,6.5375,6.5488,6.5729,6.5779,6.5853,6.59,6.585,6.6072,6.6091,6.611,6.6179,6.6206,6.5892,6.5892,6.5891,6.5891,0,6.415,6.4313,6.4424,6.4626,6.4741,6.4904,6.5013,6.5119,6.516,6.5244,6.5453,6.5589,6.5771,6.5832,6.5875,6.608,6.6062,6.6053,6.6004,6.6135,6.6202,6.6229,6.5895,6.5894,6.5894,6.5893,0,0,6.4313,6.4559,6.4598,6.469,6.4879,6.5006,6.5171,6.5349,6.5436,6.558,6.5719,6.5946,6.5938,6.6044,6.6099,6.6203,6.6354,6.6181,6.6186,6.6207,6.6586,6.6591,6.662,6.6368,6.6373,6.6378,6.6572,0,6.4498,6.4794,6.4874,6.5124,6.5274,6.532,6.5464,6.5595,6.5677,6.5816,6.5908,6.6066,6.6045,6.6108,6.6213,6.6313,6.6431,6.6301,6.6498,6.6504,6.6454,6.6656,6.6662,6.6839,6.6599,6.6603,6.6607,0,6.4754,6.4902,6.5166,6.5335,6.5401,6.5528,6.5696,6.5829,6.5978,6.6031,6.6147,6.6193,6.6365,6.6307,6.6545,6.6454,6.6539,6.66,6.6609,6.663,6.6562,6.668,6.6897,6.6923,6.6649,6.6645,6.6642,0,6.4844,6.5109,6.5301,6.5378,6.558,6.5668,6.5756,6.59,6.6001,6.6148,6.6214,6.6379,6.6469,6.6595,6.6683,6.6633,6.6913,6.6863,6.696,6.6958,6.7017,6.7012,6.7249,6.7074,6.7073,6.7073,6.7072,0,6.5042,6.5201,6.5344,6.5462,6.5641,6.5732,6.5907,6.5997,6.6124,6.626,6.631,6.6436,6.6545,6.6686,6.6756,6.6941,6.6982,6.7028,6.7045,6.7023,6.7017,6.708,6.7069,6.708,6.7078,6.7077,6.7076,0,6.5172,6.5275,6.5487,6.566,6.5707,6.5831,6.5979,6.6095,6.6178,6.6349,6.6394,6.6525,6.6693,6.6793,6.7006,6.7053,6.7257,6.7269,6.7206,6.7214,6.7305,6.7294,6.759,6.7633,6.7429,6.7431,6.7433,0,6.5291,6.5415,6.5601,6.5695,6.5784,6.5935,6.6038,6.6131,6.6236,6.6414,6.6508,6.6678,6.682,6.7085,6.7199,6.7361,6.7377,6.7469,6.7401,6.7375,6.7377,6.7368,6.738,6.748,6.7482,6.7483,6.7484,0,6.5491,6.5535,6.5682,6.5846,6.5967,6.61,6.6233,6.6307,6.6423,6.6538,6.671,6.6819,6.7035,6.7203,6.7375,6.7465,6.7494,6.7505,6.7536,6.7515,6.7473,6.7495,6.7236,6.7498,6.7496,6.7495,6.7495,6.7494,6.5619,6.573,6.5878,6.6039,6.6148,6.6271,6.6388,6.6485,6.663,6.6813,6.6859,6.7039,6.7183,6.7416,6.751,6.7651,6.7636,6.7682,6.7693,6.7702,6.7704,6.7451,6.7683,6.7682,6.7682,6.7682,6.7682,0,6.582,6.5917,6.6064,6.6248,6.6374,6.639,6.6538,6.6642,6.6799,6.6931,6.7069,6.7265,6.7428,6.7554,6.7721,6.781,6.7827,6.785,6.7844,6.7864,6.7708,6.7664,6.7833,6.7833,6.7833,6.7833,6.7833,6.7833,6.594,6.6128,6.6189,6.6431,6.6527,6.6703,6.6786,6.6899,6.7004,6.7221,6.7357,6.7438,6.7567,6.7743,6.7893,6.7926,6.7985,6.8005,6.804,6.7892,6.7875,6.7859,6.7818,6.8017,6.8018,6.8184,6.8186,6.8187]}]]